Regional Weather Roundup
Issued by NWS Newport/Morehead, NC

Current Version | Previous Version | Graphics & Text | Print | Product List | Glossary Off
Versions: 1 2 3 4 5 6 7 8 9 10 11 12 13 14 15 16 17 18 19 20 21 22 23 24 25 26 27 28 29 30 31 32 33 34 35 36 37 38 39 40 41 42 43 44 45 46 47 48 49 50
000 ASUS42 KMHX 231514 RWRMHX WEATHER ROUNDUP FOR EASTERN NORTH CAROLINA NATIONAL WEATHER SERVICE NEWPORT/MOREHEAD CITY NC 1000 AM EST THU NOV 23 2017 NOTE: "FAIR" INDICATES FEW OR NO CLOUDS BELOW 12,000 FEET WITH NO SIGNIFICANT WEATHER AND/OR OBSTRUCTIONS TO VISIBILITY NCZ015>017-031-032-045>047-102-103-231600- NORTH COAST CITY SKY/WX TMP DP RH WIND PRES REMARKS EDENTON MOSUNNY 44 35 70 CALM 30.18S ELIZABETH CITY MOSUNNY 45 36 70 N13 30.16S KITTY HAWK PTSUNNY 48 37 64 NE6 30.13F MANTEO MOSUNNY 49 37 64 NE9 30.14F $$ NCZ045>047-081-094-103-104-231600- CENTRAL COAST CITY SKY/WX TMP DP RH WIND PRES REMARKS FRISCO SUNNY 54 43 66 NE9G17 30.11F $$ NCZ095-097-098-100-101-231600- SOUTHERN COAST CITY SKY/WX TMP DP RH WIND PRES REMARKS BEAUFORT MOSUNNY 50 42 74 N10 30.13S CEDAR ISLAND NOT AVBL JACKSONVILLE CLOUDY 45 37 73 N9 30.15S PINEY ISLAND NOT AVBL WILMINGTON PTSUNNY 46 36 68 NE9 30.14S $$ NCZ011>013-027>030-043-044-078>080-089-090>093-098-231600- COASTAL PLAIN CITY SKY/WX TMP DP RH WIND PRES REMARKS AHOSKIE MOSUNNY 39 27 63 N7 30.20F CLINTON PTSUNNY 43 32 65 NE6 30.17S ELIZABETHTOWN NOT AVBL GOLDSBORO MOSUNNY 43 29 58 N8 30.17R GREENVILLE MOSUNNY 43 30 61 NE8 30.19S HAVELOCK NOT AVBL KENANSVILLE MOSUNNY 43 30 61 NE5 30.17R KINSTON MOSUNNY 43 32 65 NE8 30.18R NEW BERN MOSUNNY 43 37 79 NE8 30.16F RICHLANDS MOSUNNY 45 34 65 N10 30.16F ROCKY MOUNT MOSUNNY 40 29 64 NE8 30.19F WASHINGTON MOSUNNY 43 32 66 N9 30.18R WHITEVILLE CLOUDY 45 34 65 NE7 30.14R $$ AMZ130-135-150-152-154-156-158-170-250-252-270-ANZ085-086-088-633-658-670-231600- MARINE OBSERVATIONS STATION/POSITION TIME TEMP WIND PRES WAVE SWELL AIR SEA DIR/SP/G HT/PER HT/PER (UTC) (F) (DEG/KT/KT) (MB) (FT/S) (FT/S) CHESAPEAKE LIGHT NOT AVBL 64 E VA BEACH 1450 48 60 340/ 12/ 14 1021.0 7/ 9 7/ 9 DUCK 1442 46 58 20/ 12/ 16 1020.3 2 E DUCK 1500 60 N/A 5/ 9 2/11 OREGON INLET 1442 49 58 20/ 11/ 14 1020.3 13E OREGON INLT 1448 63 N/A 6/ 8 5/ 8 HATTERAS CG 1442 51 58 30/ 13/ 16 1019.8 DIAMOND BUOY 1450 57 71 10/ 14/ 19 1019.6 6/ 9 5/ 9 CAPE LOOKOUT 1500 10/ 11/ 13 1020.5 BEAUFORT LAB 1442 48 59 20/ 10/ 15 1020.1 30 SE NEW RVR IN 1408 54 66 60/ 14/ 19 1019.6 30 SE NEW RVR IN 1500 67 N/A 6/ 9 2/11 27 SE WRIGHTSVLE 1408 56 70 60/ 17/ 25 1019.0 5 SE WRIGHTSVLE 1408 50 63 50/ 14/ 19 1019.7 225 S CAPE HAT 1450 72 76 40/ 16/ 19 1015.5 7/ 9 5/ 9 41 SE CHARLESTON 1500 66 75 40/ 17/ 23 1016.5 $$

USA.gov is the U.S. government's official web portal to all federal, state and local government web resources and services.